Weather reports worldwide

Advertisment
Firenze/Peretola, Italy (16170): temperature & dewpoint: 16.09.2018 23:00:00 - 22.09.2018 23:00:00 (CEST)Firenze/Peretola, Italy (16170): wind speed: 16.09.2018 23:00:00 - 22.09.2018 23:00:00 (CEST)Firenze/Peretola, Italy (16170): wind direction: 16.09.2018 23:00:00 - 22.09.2018 23:00:00 (CEST)Firenze/Peretola, Italy (16170): reduced air pressure: 16.09.2018 23:00:00 - 22.09.2018 23:00:00 (CEST)Firenze/Peretola, Italy (16170): visibility: 16.09.2018 23:00:00 - 22.09.2018 23:00:00 (CEST)Firenze/Peretola, Italy (16170): precipitation: 16.09.2018 23:00:00 - 22.09.2018 23:00:00 (CEST)
Date & Time tt [°C] td [°C] ff [km/h] ff [kn] dd ppp [hPa] vv [km] rr [mm]
22.09.2018 23:00:00 23,8 19,5 9 5 SSW 1018,5 10 0,0
22.09.2018 22:00:00 24,0 17,0 2 1 - - 10 -
22.09.2018 21:00:00 26,0 17,0 5 3 SW - 10 -
22.09.2018 20:00:00 27,2 17,3 8 4 W 1016,6 10 -
22.09.2018 19:00:00 29,0 17,0 9 5 W - 10 -
22.09.2018 18:00:00 30,0 16,0 9 5 - - 10 -
22.09.2018 17:00:00 30,5 15,8 9 5 SW 1015,8 10 0,0
22.09.2018 16:00:00 31,0 15,0 11 6 W - 10 -
22.09.2018 15:00:00 30,0 16,0 9 5 W - 10 -
22.09.2018 14:00:00 30,2 15,6 5 3 - 1016,8 10 -
22.09.2018 13:00:00 28,0 16,0 5 3 S - 10 -
22.09.2018 12:00:00 27,0 18,0 5 3 - - 10 -
22.09.2018 11:00:00 25,7 17,6 5 3 - 1017,5 10 0,0
22.09.2018 10:00:00 23,0 16,0 4 2 - - 10 -
22.09.2018 09:00:00 20,0 16,0 4 2 - - 10 -
22.09.2018 08:00:00 19,5 16,0 8 4 SE 1017,1 10 -
22.09.2018 07:00:00 19,0 16,0 2 1 - - 10 -
22.09.2018 06:00:00 19,0 16,0 5 3 SE - 10 -
22.09.2018 05:00:00 20,1 16,0 4 2 - 1016,4 10 0,0
22.09.2018 04:00:00 20,0 16,0 5 3 S - 10 -
22.09.2018 03:00:00 20,0 16,0 8 4 E - 10 -
22.09.2018 02:00:00 19,6 15,9 5 3 E 1016,5 10 -
22.09.2018 01:00:00 20,0 16,0 8 4 E - 10 -
22.09.2018 00:00:00 22,0 16,0 5 3 ENE - 10 -
21.09.2018 23:00:00 23,5 16,2 8 4 SE 1016,2 10 0,0
21.09.2018 22:00:00 25,0 16,0 11 6 SSW - 10 -
21.09.2018 21:00:00 25,0 16,0 5 3 - - 10 -
21.09.2018 20:00:00 27,3 14,5 11 6 SW 1014,2 10 -
21.09.2018 19:00:00 30,0 14,0 15 8 W - 10 -
21.09.2018 18:00:00 32,0 12,0 13 7 WSW - 10 -
21.09.2018 17:00:00 32,3 13,1 11 6 SSW 1013,8 10 0,0
21.09.2018 16:00:00 33,0 13,0 8 4 - - 10 -
21.09.2018 15:00:00 32,0 13,0 5 3 - - 10 -
21.09.2018 14:00:00 32,1 13,6 8 4 - 1014,7 10 -
21.09.2018 13:00:00 30,0 15,0 9 5 SSE - 10 -
21.09.2018 12:00:00 28,0 16,0 4 2 - - 10 -
21.09.2018 11:00:00 26,2 16,6 4 2 - 1016,2 10 0,0
21.09.2018 10:00:00 23,0 16,0 2 1 - - 10 -
21.09.2018 09:00:00 21,0 16,0 2 1 - - 10 -
21.09.2018 08:00:00 17,9 15,8 5 3 ENE 1016,1 10 -
21.09.2018 07:00:00 18,0 16,0 4 2 - - 10 -
21.09.2018 06:00:00 18,0 16,0 4 2 - - 10 -
21.09.2018 05:00:00 18,0 15,0 4 2 - - 10 -
21.09.2018 04:00:00 18,0 15,0 4 2 - - 10 -
21.09.2018 03:00:00 19,0 17,0 2 1 - - 10 -
21.09.2018 02:00:00 19,0 15,8 4 2 SSW 1016,4 10 -
21.09.2018 01:00:00 22,0 16,0 2 1 - - 10 -
21.09.2018 00:00:00 23,0 16,0 2 1 - - 10 -
20.09.2018 23:00:00 24,0 16,2 4 2 - 1016,9 10 0,0
20.09.2018 22:00:00 25,0 17,0 11 6 ESE - 10 -
20.09.2018 21:00:00 26,0 16,0 2 1 - - 10 -
20.09.2018 20:00:00 27,3 15,9 11 6 NNE 1016,1 10 -
20.09.2018 19:00:00 29,0 16,0 21 11 NNE - 10 -
20.09.2018 18:00:00 30,0 15,0 18 10 NE - 10 -
20.09.2018 17:00:00 30,9 15,5 22 12 NNE 1015,8 10 0,0
20.09.2018 16:00:00 31,0 15,0 21 11 NNE - 10 -
20.09.2018 15:00:00 32,0 15,0 18 10 NE - 10 -
20.09.2018 14:00:00 31,2 15,2 16 9 NE 1017,2 10 -
20.09.2018 13:00:00 30,0 14,0 18 10 NE - 10 -
20.09.2018 12:00:00 29,0 16,0 13 7 NNE - 10 -
20.09.2018 11:00:00 28,6 15,4 15 8 N 1018,8 10 0,0
20.09.2018 10:00:00 27,0 15,0 5 3 - - 10 -
20.09.2018 09:00:00 23,0 16,0 9 5 - - 10 -
20.09.2018 08:00:00 20,6 16,3 4 2 - 1018,6 10 -
20.09.2018 07:00:00 19,0 16,0 5 3 WSW - 10 -
20.09.2018 06:00:00 20,0 16,0 4 2 - - 10 -
20.09.2018 05:00:00 20,1 16,9 5 3 SSE 1018,1 10 0,0
20.09.2018 04:00:00 20,0 17,0 5 3 SSW - 10 -
20.09.2018 03:00:00 21,0 17,0 4 2 - - 10 -
20.09.2018 02:00:00 22,1 17,0 5 3 SSW 1018,7 10 -
20.09.2018 01:00:00 23,0 17,0 8 4 SSW - 10 -
20.09.2018 00:00:00 24,0 17,0 8 4 SW - 10 -
19.09.2018 23:00:00 24,2 17,2 8 4 S 1019,0 10 0,0
19.09.2018 22:00:00 26,0 17,0 8 4 - - 10 -
19.09.2018 21:00:00 26,0 17,0 13 7 NE - 10 -
19.09.2018 20:00:00 26,8 16,7 9 5 N 1017,9 10 -
19.09.2018 19:00:00 28,0 17,0 11 6 NE - 10 -
19.09.2018 18:00:00 30,0 16,0 16 9 ENE - 10 -
19.09.2018 17:00:00 29,5 16,6 18 10 NNE 1017,1 10 0,0
19.09.2018 16:00:00 32,0 16,0 13 7 N - 10 -
19.09.2018 15:00:00 31,0 15,0 8 4 N - 10 -
19.09.2018 14:00:00 29,9 17,0 9 5 NE 1018,3 10 -
19.09.2018 13:00:00 29,0 18,0 5 3 WSW - 10 -
19.09.2018 12:00:00 28,0 18,0 4 2 - - 10 -
19.09.2018 11:00:00 24,9 18,2 4 2 - 1019,6 10 0,0
19.09.2018 10:00:00 22,0 18,0 4 2 - - 10 -
19.09.2018 09:00:00 20,0 17,0 4 2 N - 10 -
19.09.2018 08:00:00 18,7 17,2 4 2 SSW 1019,8 10 -
19.09.2018 07:00:00 17,0 17,0 2 1 - - 10 -
19.09.2018 06:00:00 18,0 17,0 2 1 WNW - 10 -
19.09.2018 05:00:00 17,8 16,7 4 2 NE 1019,1 10 0,0
19.09.2018 04:00:00 18,0 17,0 2 1 - - 10 -
19.09.2018 03:00:00 19,0 17,0 4 2 SSW - 10 -
19.09.2018 02:00:00 20,1 17,7 5 3 S 1019,5 10 -
19.09.2018 01:00:00 19,0 17,0 4 2 - - 10 -
19.09.2018 00:00:00 21,0 18,0 2 1 - - 10 -
18.09.2018 23:00:00 22,4 17,8 9 5 S 1019,3 10 0,0
18.09.2018 22:00:00 22,0 18,0 4 2 - - 10 -
18.09.2018 21:00:00 22,0 17,0 8 4 ENE - 10 -
18.09.2018 20:00:00 23,3 17,0 8 4 E 1018,1 10 -
18.09.2018 19:00:00 25,0 18,0 9 5 NNE - 10 -
18.09.2018 18:00:00 25,0 19,0 8 4 N - 10 -
18.09.2018 17:00:00 24,2 19,7 16 9 WSW 1017,7 10 0,0
18.09.2018 16:00:00 29,0 17,0 8 4 S - 10 -
18.09.2018 15:00:00 30,0 16,0 8 4 S - 10 -
18.09.2018 14:00:00 29,6 16,0 9 5 - 1018,7 10 -
18.09.2018 13:00:00 28,0 16,0 5 3 - - 10 -
18.09.2018 12:00:00 27,0 17,0 4 2 - - 10 -
18.09.2018 11:00:00 24,9 16,9 4 2 - 1020,3 10 0,0
18.09.2018 10:00:00 22,0 17,0 4 2 - - 10 -
18.09.2018 09:00:00 20,0 17,0 2 1 - - 10 -
18.09.2018 08:00:00 18,9 16,3 5 3 SSW 1020,4 30 -
18.09.2018 07:00:00 18,0 16,0 4 2 NNW - 10 -
18.09.2018 06:00:00 18,0 16,0 4 2 NNE - 10 -
18.09.2018 05:00:00 18,8 16,1 2 1 - 1019,6 10 0,0
18.09.2018 04:00:00 19,0 16,0 2 1 - - 10 -
18.09.2018 03:00:00 19,0 16,0 2 1 - - 10 -
18.09.2018 02:00:00 19,8 15,9 4 2 - 1019,9 10 -
18.09.2018 01:00:00 21,0 16,0 5 3 NE - 10 -
18.09.2018 00:00:00 22,0 16,0 4 2 - - 10 -
17.09.2018 23:00:00 22,2 15,9 8 4 E 1019,9 10 0,0
17.09.2018 22:00:00 23,0 16,0 8 4 E - 10 -
17.09.2018 21:00:00 24,0 17,0 9 5 E - 10 -
17.09.2018 20:00:00 25,4 17,6 9 5 SSE 1019,7 10 -
17.09.2018 19:00:00 27,0 17,0 15 8 S - 10 -
17.09.2018 18:00:00 29,0 15,0 8 4 W - 10 -
17.09.2018 17:00:00 29,3 15,5 9 5 WSW 1018,4 10 0,0
17.09.2018 16:00:00 30,0 15,0 8 4 - - 10 -
17.09.2018 15:00:00 29,0 15,0 5 3 - - 10 -
17.09.2018 14:00:00 28,8 16,1 4 2 - 1020,3 10 -
17.09.2018 13:00:00 26,0 17,0 4 2 - - 10 -
17.09.2018 12:00:00 25,0 17,0 8 4 W - 10 -
17.09.2018 11:00:00 24,2 16,5 8 4 WNW 1021,7 10 0,0
17.09.2018 10:00:00 24,0 16,0 2 1 - - 10 -
17.09.2018 09:00:00 21,0 16,0 2 1 - - 10 -
17.09.2018 08:00:00 19,7 16,8 2 1 - 1021,7 10 -
17.09.2018 07:00:00 17,0 15,0 4 2 E - 10 -
17.09.2018 06:00:00 19,0 16,0 4 2 - - 10 -
17.09.2018 05:00:00 17,8 15,1 2 1 - 1021,3 10 0,0
17.09.2018 04:00:00 19,0 16,0 2 1 - - 10 -
17.09.2018 03:00:00 20,0 16,0 5 3 ENE - 10 -
17.09.2018 02:00:00 19,6 15,8 4 2 ENE 1021,5 10 -
17.09.2018 01:00:00 20,0 16,0 5 3 ENE - 10 -
17.09.2018 00:00:00 22,0 16,0 5 3 E - 10 -
16.09.2018 23:00:00 23,8 16,1 5 3 SSW 1021,7 10 0,0

tt = temperature
td = dewpoint
ff = wind speed
dd = wind direction
ppp = reduced air pressure
vv = visibility
rr = precipitation

Next stations